Location: Goettingen
(51.5300°N, 9.9433°E)
Time: 21:45:57
(UTC+01:00)

ISS - Visible Passes

Search period start: 12 December 2018 00:00
Search period end: 22 December 2018 00:00
Orbit: 401 x 408 km, 51.6° (Epoch: 13 December)

Date Brightness Start Highest point End Pass type
(mag) Time Alt. Az. Time Alt. Az. Time Alt. Az.
12 Dec -1.8 17:21:39 10° W 17:24:32 29° SSW 17:27:24 10° SSE visible
13 Dec -0.4 18:07:36 10° SW 18:08:18 11° SW 18:09:01 10° SSW visible
14 Dec -0.7 17:14:13 10° W 17:16:24 17° SW 17:18:33 10° S visible
